Total_Precipitation_Accumulation
3.33 3.34 3.31 3.23 2.97 3.30 3.72 3.99 3.58 3.88 3.92 3.51 3.16 2.96 2.95 2.89 3.05 3.26 3.20 3.34 3.28 3.29 3.64 3.83 3.64 3.36 3.20 2.86 2.48 2.24 2.12 1.91 1.69 1.39 1.17 1.14 1.14 1.12 1.08 1.07 1.02 0.92 0.85
3.91 3.85 3.65 3.53 3.15 3.12 3.44 3.67 3.67 4.09 3.93 3.71 3.08 2.91 2.84 2.98 3.20 3.27 3.34 3.85 3.73 3.42 3.49 3.86 4.12 4.10 3.86 3.61 3.21 2.86 2.57 2.33 2.18 1.79 1.42 1.29 1.23 1.17 1.13 1.18 1.26 1.13 0.94
4.34 4.16 3.91 3.50 3.25 3.26 3.49 3.46 3.51 3.64 3.47 3.34 3.09 3.11 3.04 3.02 3.03 3.15 3.35 3.68 3.54 3.20 3.23 3.49 3.98 4.37 4.59 4.55 4.23 3.93 3.34 2.80 2.53 2.13 1.71 1.42 1.28 1.21 1.17 1.19 1.26 1.24 1.09
4.07 4.11 3.76 3.30 3.30 3.30 3.37 3.53 3.40 3.49 3.44 3.40 3.33 3.06 3.06 3.05 2.73 2.75 2.92 3.05 3.27 2.91 3.03 3.22 3.45 3.80 4.49 5.17 5.54 5.46 4.73 3.74 2.99 2.57 2.23 1.86 1.57 1.38 1.25 1.25 1.36 1.34 1.15
3.83 4.04 3.70 3.47 3.37 3.34 3.24 3.00 3.46 3.64 3.61 3.56 3.17 3.04 2.77 2.57 2.39 2.21 2.26 2.19 2.44 2.64 2.90 2.91 3.11 3.35 4.12 5.23 6.24 6.60 6.16 5.00 4.02 3.41 3.06 2.63 2.25 1.90 1.58 1.42 1.36 1.26 1.14
3.46 3.69 3.40 3.29 3.39 3.54 3.39 3.41 3.75 3.79 3.44 3.47 3.03 2.92 2.76 2.36 2.24 2.13 2.01 2.02 2.01 1.96 2.36 2.82 3.32 3.02 3.36 4.30 5.32 6.12 6.64 6.24 5.22 4.41 3.79 3.36 2.96 2.55 2.05 1.76 1.63 1.54 1.45
3.06 3.44 3.19 3.54 3.35 3.31 3.17 3.12 3.26 3.33 2.99 3.16 3.52 3.07 2.52 2.20 2.06 1.91 1.92 1.97 1.91 2.01 2.36 2.83 3.19 3.31 3.09 3.03 3.49 4.24 5.46 6.13 5.74 4.95 4.29 3.82 3.43 3.07 2.52 2.20 2.02 1.83 1.73
3.11 2.93 3.17 2.99 2.95 3.08 2.89 2.82 3.02 3.04 2.73 3.01 3.30 3.39 2.84 2.58 2.14 1.60 1.75 1.87 1.98 2.21 2.24 2.34 2.77 3.15 3.04 3.34 2.77 2.70 3.77 4.89 5.60 5.46 4.78 4.16 3.69 3.26 2.84 2.58 2.27 1.91 1.72
3.25 3.10 3.01 2.83 2.78 2.62 2.79 2.82 2.86 2.98 2.96 2.84 2.89 3.22 2.95 2.64 2.21 1.72 1.64 1.85 2.17 2.44 2.40 2.43 2.39 2.65 2.75 3.12 3.04 2.73 2.68 3.23 4.30 5.37 5.39 4.67 3.82 3.17 2.80 2.76 2.65 2.30 2.01
3.44 3.13 2.94 2.72 2.57 2.43 2.74 2.43 2.54 2.87 3.08 2.76 2.67 2.64 2.60 2.74 2.63 2.26 1.81 1.64 1.91 2.13 2.17 2.06 2.13 2.33 2.53 2.84 2.96 2.91 2.61 2.56 3.17 4.26 4.90 4.84 4.26 3.54 3.08 3.08 3.38 3.32 2.84
3.19 2.84 2.74 2.67 2.49 2.35 2.41 2.40 2.71 2.73 2.72 2.65 2.71 2.63 2.73 2.92 2.72 2.57 2.23 2.07 2.17 2.06 1.94 1.88 1.94 2.13 2.41 2.70 3.01 2.93 3.14 2.83 2.65 2.93 3.47 3.87 4.04 3.82 3.50 3.64 4.25 4.58 4.26
2.85 2.59 2.46 2.55 2.41 2.33 2.39 2.40 2.52 2.57 2.72 2.78 2.77 2.72 2.78 2.79 2.83 2.99 2.64 2.39 2.36 2.06 1.96 1.95 2.05 2.21 2.40 2.58 2.52 2.70 2.88 2.99 2.80 2.68 2.78 2.99 3.26 3.52 3.67 3.95 4.46 4.96 5.22
2.33 2.29 2.33 2.45 2.31 2.28 2.37 2.53 2.59 2.56 2.68 2.74 2.67 2.74 2.81 2.74 2.87 3.02 2.95 2.59 2.36 2.10 2.15 2.13 2.09 2.33 2.38 2.65 2.83 2.72 2.44 2.54 2.47 2.42 2.39 2.42 2.51 2.80 3.12 3.43 4.00 4.58 5.05
2.00 2.06 2.27 2.33 2.26 2.18 2.20 2.64 2.63 2.65 2.75 2.71 2.57 2.88 2.90 2.67 2.86 3.02 3.14 3.18 2.85 2.64 2.69 2.64 2.35 2.33 2.50 2.62 2.80 2.61 2.37 2.37 2.09 2.01 1.97 1.98 2.04 2.16 2.35 2.61 2.96 3.34 3.66
2.02 2.09 2.16 2.37 2.47 2.55 2.59 2.76 2.69 2.69 2.90 2.86 2.81 3.01 2.97 2.77 2.77 2.89 3.12 3.35 3.41 3.20 3.08 2.95 2.59 2.46 2.49 2.49 2.56 2.38 2.49 2.40 1.95 1.70 1.65 1.64 1.61 1.62 1.70 1.84 2.07 2.38 2.59
2.12 2.20 2.22 2.30 2.45 2.55 2.61 2.76 2.76 2.80 2.98 3.00 3.06 3.13 2.99 2.71 2.85 2.89 3.01 3.32 3.59 3.65 3.36 2.92 2.68 2.56 2.59 2.38 2.38 2.15 2.19 2.09 1.76 1.59 1.49 1.46 1.41 1.36 1.35 1.42 1.55 1.81 2.02
2.12 2.23 2.26 2.23 2.20 2.33 2.53 2.74 2.68 2.85 2.97 3.01 2.98 2.90 2.81 2.84 3.00 2.92 3.06 3.22 3.45 3.70 3.41 3.03 2.88 2.82 2.85 2.70 2.52 2.21 1.93 1.81 1.67 1.71 1.54 1.39 1.33 1.29 1.33 1.40 1.47 1.57 1.74
2.19 2.20 2.21 2.19 2.09 2.20 2.46 2.61 2.71 2.96 3.10 2.98 2.89 2.88 2.75 2.88 2.98 2.96 3.04 3.02 3.11 3.44 3.32 3.08 3.01 3.04 2.94 2.75 2.63 2.44 2.06 1.87 1.88 1.95 1.72 1.54 1.43 1.39 1.35 1.35 1.44 1.52 1.63
2.16 2.15 2.20 2.23 2.30 2.42 2.56 2.68 2.79 2.96 2.94 2.83 2.85 2.78 2.65 2.75 2.69 2.76 2.80 2.82 2.82 2.94 3.14 3.03 2.92 2.99 2.91 2.76 2.68 2.51 2.40 2.48 2.25 2.06 1.89 1.70 1.56 1.48 1.44 1.36 1.39 1.49 1.59
1.93 1.98 2.18 2.38 2.50 2.63 2.72 2.77 2.78 2.74 2.73 2.62 2.51 2.44 2.47 2.60 2.70 2.71 2.61 2.60 2.68 2.82 2.92 2.97 2.94 3.02 3.03 3.04 2.93 2.76 2.75 2.69 2.50 2.02 1.93 1.71 1.57 1.44 1.36 1.28 1.30 1.45 1.58
1.87 2.10 2.25 2.33 2.37 2.40 2.47 2.66 2.63 2.52 2.50 2.38 2.28 2.11 2.15 2.48 2.64 2.62 2.41 2.52 2.60 2.66 2.74 2.88 2.92 3.02 3.10 3.32 3.13 2.83 2.69 2.75 2.59 2.32 2.13 1.88 1.72 1.59 1.53 1.46 1.39 1.39 1.42
2.05 2.23 2.22 2.20 2.16 1.82 1.94 2.10 2.13 2.14 2.19 2.17 2.05 1.98 1.97 2.05 2.08 2.13 2.14 2.17 2.24 2.31 2.52 2.82 2.91 2.90 2.88 2.98 3.11 3.02 2.91 2.82 2.73 2.60 2.63 2.50 2.13 2.05 1.92 1.75 1.62 1.37 1.22
2.26 2.37 2.32 2.25 2.09 1.96 1.86 1.76 1.75 1.81 1.95 1.97 2.00 2.07 1.78 1.59 1.74 1.77 1.92 1.92 1.86 1.96 2.10 2.38 2.57 2.60 2.71 2.72 3.00 3.04 3.10 3.10 3.01 2.94 2.92 2.95 2.59 2.26 1.98 1.87 1.79 1.43 1.26
2.51 2.52 2.48 2.37 2.25 2.13 2.03 1.84 1.82 1.74 1.83 1.86 1.87 1.91 1.86 1.73 1.69 1.81 1.91 1.86 1.71 1.67 1.67 1.64 1.86 2.15 2.42 2.70 2.76 2.83 2.98 3.05 3.05 2.87 2.76 2.81 2.63 2.47 2.12 1.83 1.69 1.48 1.29
2.67 2.62 2.67 2.56 2.43 2.40 2.22 1.87 1.70 1.62 1.77 1.81 1.82 1.77 1.73 1.66 1.73 1.61 1.58 1.61 1.62 1.60 1.43 1.43 1.52 1.74 1.96 2.05 2.27 2.53 2.77 2.76 2.70 2.51 2.31 2.38 2.40 2.41 2.39 2.14 1.74 1.60 1.37
2.80 2.79 2.70 2.68 2.55 2.49 2.37 1.85 1.58 1.50 1.69 1.74 1.81 1.76 1.64 1.49 1.49 1.38 1.35 1.50 1.50 1.50 1.55 1.49 1.40 1.42 1.49 1.65 1.75 1.84 2.17 2.40 2.32 2.26 2.02 1.92 1.90 2.03 2.20 1.99 1.72 1.63 1.58